STARLINK-31366, 59403

Orbit data source: Space-Track

STARLINK-31366, 59403 is a payload satellite owned by SpaceX/Seattle (US) in LEO that was launched on Fri, 05 Apr 2024 UTC via an FALCON 9 launch vehicle from the Air Force Eastern Test Range (AFETR). Payload-class satellites include a variety of spacecraft equipped with specific instruments for various scientific and technological missions. These include communications satellites like Starlink; space stations such as the ISS; scientific satellites like the Hubble; Earth observation satellites from companies like Planet Labs, Umbra, and HawkEye 360; GPS; miniature CubeSats for education and research; and military/defense satellites.

Loading next visibility...
Identifier
59403, 2024-064F
Orbit
LEO
Country
Flag of USUS
Related business
Manufacturer
SpaceX/Seattle
Mission
Operational Commercial Communications
Bus & Motor
STARLINK V2M, Unknown motor
Mass
730 kg wet, ~700 kg dry
Launch date (UTC)
2024-04-05 (2 years ago)
Launch vehicle
FALCON 9
Launch site
Air Force Eastern Test Range (AFETR)
Object type
Payload
Rocket body
Debris
Shape & HBR
Box + 2 Pan, 17.7 m
Radar Cross Section
33.884 m², Large (>1 m²)

Expand to show TLE details & history
Last TLE update: 2 days ago

TLE from 2 days ago
0 STARLINK-31366
1 59403U 24064F   26171.13750797  .00000727  00000-0  35940-4 0  9994
2 59403  43.0030 197.6216 0001234 279.5238  80.5474 15.27575540124894
Epoch: 2026-06-20T03:18Z
TLE epoch observation values (Epoch: 2026-06-20T03:18:00.688Z)
Latitude
-0.00004°
Longitude
-120.23775°
Altitude
482.699 km
Speed
7.626 km/s
True Right ascension
13h 10m 29s
True Declination
0° 00' 00"
Sunlit
Object was in daylight at epoch
Visualization orbit readout
Latitude
Unknown
Longitude
Unknown
Altitude
Unknown
Speed
Unknown
Apparent Right ascension
Unknown
Apparent Declination
Unknown
Sunlit
N/A
Visualization observer readout
Local Sidereal Time
21:25:13
Azimuth
Unknown
Elevation
Unknown
Doppler factor
Unknown
Orbital elements
Apogee altitude
485.854 km
Perigee altitude
484.16 km
Semi-major axis
6,863.144 km
Eccentricity
0.00012
Inclination
43.003°
RAAN
197.6216°
Arg. of periapsis
279.5238°
True anomaly
80.56135°
Mean anomaly
80.5474°
Eccentric anomaly
80.55437°
Mean motion
3.81732 °/min
Orbital period
94.31 mins
BSTAR
0.00003594
Loading maneuver chart data...
Computing Atmospheric mass density...
Loading historical data...
Loading historical data...
Loading historical data...
Loading historical data...
Loading historical data...
Loading historical data...
Loading historical data...

Documentation

Showing up to 5 results
|